Theta_e
320 320 320 319 321 321 322 325 327 328 328 328 329 329 329 328 327 329 333 335 336 337
314 315 314 314 317 318 321 323 322 323 324 325 326 328 327 326 326 327 329 334 337 337
313 312 311 312 312 314 316 318 320 321 321 322 322 325 326 324 325 324 326 331 331 333
310 309 310 309 310 311 312 315 316 318 319 321 321 321 324 324 328 325 324 324 325 328
308 309 309 309 309 310 309 311 312 313 315 318 321 320 320 322 323 324 324 326 325 326
309 308 308 308 308 309 308 308 309 311 314 316 318 320 319 320 320 321 322 323 326 326
306 306 306 307 307 307 307 306 306 307 309 311 313 315 316 315 316 317 317 320 325 326
304 304 304 304 304 305 304 303 304 305 306 307 307 310 309 309 310 311 312 313 316 323
302 302 301 301 301 301 300 300 301 302 302 302 303 303 304 306 305 307 308 309 311 314
300 300 299 299 299 298 297 298 298 299 299 299 301 300 300 302 303 303 305 307 309 310
298 298 298 297 297 296 296 295 296 296 297 297 298 299 298 299 300 301 303 305 307 308
298 296 296 295 294 295 295 295 294 295 296 296 297 297 297 298 298 298 299 301 306 307
296 295 294 294 294 295 295 295 296 295 295 296 296 296 296 296 297 296 296 300 304 302
295 293 294 294 293 292 292 294 293 294 295 296 296 296 295 295 296 295 296 297 300 304
Wind_Speed
4 4 3 3 2 3 3 3 4 4 4 4 4 4 4 3 3 3 3 4 4 3
6 4 4 5 4 3 4 3 4 3 4 5 5 6 6 5 5 3 4 5 6 5
3 4 1 3 5 5 6 6 7 6 5 5 5 5 5 4 5 5 4 5 7 7
5 6 5 5 4 5 6 5 5 6 6 5 5 6 5 5 5 4 4 5 7 8
6 7 6 5 4 4 6 5 7 7 6 7 4 4 5 6 6 6 6 7 6 10
4 4 4 6 7 7 6 6 7 8 8 8 8 6 5 4 5 5 5 6 6 7
4 4 4 4 5 6 7 7 7 6 9 8 9 8 7 8 7 6 6 6 7 4
4 3 3 4 5 4 5 7 8 7 8 7 8 7 8 8 7 7 6 5 7 5
4 4 4 5 6 6 7 7 8 8 8 9 8 11 13 8 8 9 6 6 6 5
4 5 5 7 8 7 7 7 8 8 7 9 9 13 13 14 8 9 8 7 6 5
5 6 6 7 7 7 7 7 9 10 10 9 8 13 13 16 10 8 10 9 8 6
6 7 7 8 9 9 6 7 8 9 12 11 9 11 13 14 11 10 10 10 8 7
6 7 8 8 8 8 8 10 9 12 11 14 11 10 12 13 8 10 9 9 9 6
4 7 8 8 9 9 9 10 10 12 11 12 10 10 13 15 9 8 9 9 7 6
Wind_Direction
25 330 351 25 8 335 334 10 7 28 12 2 337 323 315 287 266 260 256 242 247 248
111 51 4 3 1 342 328 349 3 29 10 347 353 4 5 355 331 295 271 259 257 257
339 96 136 26 353 344 328 349 342 348 357 353 349 355 7 3 359 334 301 287 275 283
359 9 355 37 334 317 306 334 335 322 329 331 342 346 357 358 1 348 304 280 281 277
59 17 11 21 7 347 333 342 333 321 319 311 305 320 338 340 350 1 347 309 283 278
50 79 29 9 355 347 348 357 357 342 330 321 318 323 315 312 323 340 340 334 302 279
46 44 24 11 346 341 340 344 339 345 324 336 330 327 343 340 333 333 330 331 342 311
16 19 4 348 328 319 321 320 319 328 308 330 333 322 343 330 330 317 321 323 328 340
1 345 336 316 320 314 316 315 314 311 330 326 316 322 324 346 332 322 320 309 307 319
325 318 315 315 315 308 300 305 304 302 314 311 306 308 314 326 324 311 309 301 293 303
315 303 297 295 293 292 295 302 304 303 303 293 300 299 308 316 313 305 300 298 294 284
302 293 295 295 296 282 278 289 289 295 301 289 284 290 299 308 310 305 299 295 279 279
303 316 314 299 299 311 316 303 296 292 286 286 285 290 288 290 290 295 299 297 291 268
309 287 284 301 309 309 305 297 295 297 294 290 283 286 279 278 284 285 293 298 295 288